GW4827 Weather Reports


time (UTC)temp
F
wind
direction
speed
knots
gust
knots
rain 1hr
in
rain 24hr
in
rain mn
in
humidity
%
barometer
mb
20260507161032 60 276 7.0 16.5 0.00 0.24 0.16 45 1007.4
20260507160553 62 266 7.0 7.8 0.00 0.24 0.16 47 1007.4
20260507160011 61 300 4.3 7.8 0.00 0.24 0.16 49 1007.4
20260507155511 60 290 5.2 9.6 0.00 0.24 0.16 52 1007.4
20260507155011 62 253 2.6 5.2 0.00 0.24 0.16 48 1007.6
20260507154511 62 324 0.9 10.4 0.00 0.24 0.16 51 1007.6
20260507154011 62 266 2.6 9.6 0.00 0.24 0.16 51 1007.7
20260507153411 62 291 4.3 7.0 0.00 0.24 0.16 51 1007.6
20260507152911 60 285 1.7 5.2 0.00 0.24 0.16 56 1007.5
20260507152410 61 240 3.5 7.8 0.00 0.24 0.16 59 1007.8
20260507151910 59 249 1.7 10.4 0.00 0.24 0.16 56 1007.5
20260507151410 58 248 5.2 11.3 0.00 0.24 0.16 61 1007.7
20260507150909 58 267 8.7 9.6 0.00 0.24 0.16 62 1007.9
20260507150409 59 205 7.0 9.6 0.00 0.24 0.16 60 1007.9
20260507145909 58 302 2.6 11.3 0.00 0.24 0.16 64 1008.0
20260507145409 59 235 4.3 8.7 0.00 0.24 0.16 60 1007.7
20260507144928 57 276 2.6 8.7 0.00 0.24 0.16 64 1007.8
20260507144408 58 0.0 3.5 0.00 0.24 0.16 63 1007.9
20260507143928 58 294 4.3 8.7 0.00 0.24 0.16 61 1007.8
20260507143308 60 283 1.7 5.2 0.00 0.24 0.16 60 1008.0
20260507142808 58 287 4.3 9.6 0.00 0.24 0.16 61 1008.0
20260507142308 58 271 5.2 8.7 0.00 0.24 0.16 61 1008.0
20260507141807 59 242 1.7 7.0 0.00 0.24 0.16 62 1008.1
20260507141307 57 246 7.8 11.3 0.00 0.24 0.16 63 1008.2
20260507140807 58 286 1.7 2.6 0.00 0.24 0.16 66 1008.1
20260507140327 58 326 0.9 6.1 0.00 0.24 0.16 68 1007.9
20260507135807 58 203 1.7 11.3 0.00 0.24 0.16 67 1008.3
20260507135307 58 227 5.2 5.2 0.00 0.24 0.16 67 1008.3
20260507134806 57 107 1.7 5.2 0.00 0.24 0.16 68 1008.1
20260507134306 56 137 0.9 6.1 0.00 0.24 0.16 75 1008.3
20260507133806 56 330 1.7 6.1 0.00 0.24 0.16 72 1008.0
20260507133206 56 318 1.7 8.7 0.00 0.24 0.16 71 1008.2
20260507132725 56 50 3.5 3.5 0.00 0.24 0.16 79 1008.3
20260507132346 55 350 0.9 8.7 0.00 0.24 0.16 77 1008.3
20260507131705 54 278 3.5 4.3 0.00 0.24 0.16 79 1008.2
20260507131206 54 242 5.2 8.7 0.00 0.24 0.16 82 1008.5
20260507130725 53 318 1.7 7.8 0.00 0.24 0.16 84 1008.5
20260507130204 54 319 3.5 3.5 0.00 0.24 0.16 86 1008.4
20260507125705 53 337 1.7 5.2 0.00 0.24 0.16 88 1008.2
20260507125204 52 331 1.7 6.1 0.00 0.24 0.16 88 1008.5
20260507124704 52 290 0.9 3.5 0.00 0.24 0.16 91 1008.5
20260507124204 51 306 2.6 4.3 0.00 0.24 0.16 91 1008.6
20260507123603 51 0.0 6.1 0.00 0.24 0.16 91 1008.6
20260507123103 50 249 5.2 6.1 0.00 0.24 0.16 94 1008.7
20260507122623 49 271 1.7 4.3 0.00 0.24 0.16 94 1008.5
20260507122123 49 247 5.2 9.6 0.00 0.24 0.16 95 1008.6
20260507121604 49 319 3.5 4.3 0.00 0.24 0.16 96 1008.5
20260507121103 49 281 2.6 5.2 0.00 0.24 0.16 96 1008.4
20260507120602 49 228 1.7 6.1 0.00 0.24 0.16 97 1008.4
20260507115623 49 256 4.3 4.3 0.00 0.24 0.16 98 1008.5
20260507115102 49 359 1.7 3.5 0.00 0.24 0.16 99 1008.2
20260507114602 48 267 4.3 5.2 0.00 0.24 0.16 99 1008.4
20260507114202 48 308 3.5 6.1 0.00 0.24 0.16 99 1008.4
20260507113702 49 259 0.9 2.6 0.00 0.24 0.16 99 1008.5
20260507113101 48 288 2.6 2.6 0.00 0.24 0.16 99 1008.5
20260507112601 48 306 2.6 3.5 0.00 0.24 0.16 99 1008.3
20260507112101 48 313 1.7 3.5 0.00 0.24 0.16 99 1008.2
20260507111601 48 267 1.7 2.6 0.00 0.24 0.16 99 1008.2
20260507111100 48 260 1.7 2.6 0.00 0.24 0.16 99 1008.2
20260507110600 48 257 1.7 2.6 0.00 0.24 0.16 99 1008.4
20260507110059 48 286 1.7 2.6 0.00 0.24 0.16 99 1008.1
20260507105559 48 255 1.7 2.6 0.01 0.24 0.16 99 1007.7
20260507105059 48 281 0.9 2.6 0.01 0.24 0.16 99 1007.9
20260507104559 48 308 1.7 1.7 0.01 0.24 0.16 99 1008.1
20260507104119 48 266 1.7 3.5 0.02 0.24 0.16 99 1008.2
20260507103559 48 279 2.6 2.6 0.02 0.24 0.16 99 1008.4
20260507102958 48 273 1.7 2.6 0.04 0.24 0.16 99 1008.3
20260507102458 48 192 1.7 2.6 0.05 0.24 0.16 99 1008.5
20260507101958 48 259 1.7 3.5 0.06 0.24 0.16 99 1008.1
20260507101458 47 280 0.9 1.7 0.06 0.24 0.16 98 1007.6
20260507100958 47 0.0 1.7 0.07 0.24 0.16 98 1007.7
20260507100537 47 0.0 1.7 0.08 0.24 0.16 98 1007.9
20260507100017 47 263 1.7 2.6 0.09 0.24 0.16 98 1007.7
20260507095457 47 294 0.9 1.7 0.10 0.24 0.16 98 1007.5
20260507094957 47 267 0.9 3.5 0.10 0.24 0.16 98 1007.4
20260507094457 47 0.0 1.7 0.11 0.23 0.15 98 1007.6
20260507093956 47 202 1.7 1.7 0.11 0.23 0.15 98 1007.7
20260507093356 47 0.0 1.7 0.11 0.22 0.14 98 1007.5
20260507092856 47 288 1.7 1.7 0.09 0.20 0.12 97 1007.7
20260507092356 47 263 6.1 7.0 0.08 0.19 0.11 97 1007.4
20260507091855 47 291 4.3 4.3 0.08 0.19 0.11 97 1007.6
20260507091416 48 238 1.7 4.3 0.07 0.18 0.10 97 1007.5
20260507090855 48 250 1.7 4.3 0.08 0.17 0.09 97 1007.5
20260507090355 48 286 3.5 6.1 0.06 0.16 0.08 96 1007.7
20260507085854 48 272 1.7 3.5 0.06 0.15 0.07 96 1007.9
20260507085354 48 294 2.6 4.3 0.05 0.14 0.06 95 1007.8
20260507084854 48 0.0 2.6 0.04 0.13 0.05 95 1007.9
20260507084354 49 296 1.7 2.6 0.04 0.12 0.04 95 1007.7
20260507083854 49 265 2.6 3.5 0.04 0.12 0.04 94 1007.7
20260507083253 49 243 3.5 7.0 0.03 0.11 0.03 94 1007.8
20260507082853 49 279 3.5 5.2 0.03 0.11 0.03 94 1007.7
20260507082353 49 303 0.9 5.2 0.03 0.11 0.03 94 1007.4
20260507082013 49 295 1.7 4.3 0.03 0.11 0.03 93 1007.4
20260507081352 50 286 2.6 7.0 0.03 0.11 0.03 91 1007.3
20260507080912 50 274 5.2 7.8 0.02 0.10 0.02 90 1007.4
20260507080352 51 295 2.6 10.4 0.01 0.09 0.01 89 1007.9
20260507075852 51 259 6.1 13.0 0.01 0.09 0.01 91 1007.6
20260507075353 51 317 1.7 3.5 0.01 0.09 0.01 92 1007.6
20260507074852 51 304 1.7 4.3 0.01 0.09 0.01 91 1007.5
20260507074351 52 295 2.6 3.5 0.00 0.08 0.00 88 1007.4
20260507073851 52 306 1.7 9.6 0.00 0.08 0.00 87 1007.4
20260507073351 53 273 5.2 11.3 0.00 0.08 0.00 84 1007.4
20260507072851 53 317 4.3 7.0 0.00 0.08 0.00 84 1007.3
20260507072410 53 290 4.3 5.2 0.00 0.08 0.00 84 1007.1
20260507071850 53 258 6.1 7.0 0.00 0.08 0.00 84 1006.6
20260507071350 54 310 4.3 7.8 0.00 0.08 0.00 84 1006.6
20260507070850 54 260 1.7 2.6 0.00 0.08 0.00 84 1006.5
20260507070350 54 269 0.9 5.2 0.00 0.08 0.00 84 1006.5
20260507065849 54 354 0.9 7.0 0.00 0.08 0.00 84 1006.4
20260507065349 54 306 3.5 9.6 0.00 0.08 0.00 85 1006.5
20260507064849 54 146 4.3 11.3 0.00 0.08 0.00 84 1006.6
20260507064348 54 204 1.7 4.3 0.00 0.08 0.00 84 1006.5
20260507063848 55 29 5.2 6.1 0.00 0.08 0.00 84 1006.6
20260507063348 55 293 4.3 13.9 0.00 0.08 0.00 84 1007.0
20260507062908 55 283 2.6 6.1 0.00 0.08 0.00 87 1007.0
20260507062348 55 318 3.5 4.3 0.00 0.08 0.00 87 1006.9
20260507061848 55 291 1.7 5.2 0.00 0.08 0.00 87 1006.8
20260507061348 55 286 5.2 6.1 0.00 0.08 0.00 87 1006.5
20260507060847 56 256 2.6 6.1 0.00 0.08 0.00 87 1006.6
20260507060347 56 244 2.6 4.3 0.00 0.08 0.00 87 1006.7
20260507055847 56 337 1.7 3.5 0.00 0.08 0.00 88 1006.7
20260507055347 56 278 1.7 4.3 0.00 0.08 0.00 87 1006.8
20260507054906 56 281 2.6 5.2 0.00 0.08 0.00 87 1007.0
20260507054407 56 280 1.7 7.0 0.00 0.08 0.00 87 1006.8
20260507053846 57 258 7.8 12.2 0.00 0.08 0.00 86 1007.1
20260507053346 57 331 3.5 5.2 0.00 0.08 0.00 88 1007.2
20260507052846 57 276 4.3 5.2 0.00 0.08 0.00 87 1007.0
20260507052345 57 261 4.3 6.1 0.00 0.08 0.00 87 1007.1
20260507051905 57 291 5.2 8.7 0.00 0.08 0.00 87 1007.1
20260507051345 57 273 7.0 9.6 0.00 0.08 0.00 88 1006.9
20260507050845 58 68 5.2 7.0 0.00 0.08 0.00 89 1006.7
20260507050344 58 263 6.1 9.6 0.00 0.08 0.00 90 1006.8
20260507045844 58 266 1.7 4.3 0.00 0.08 0.00 92 1006.6
20260507045344 58 265 3.5 4.3 0.00 0.08 0.00 92 1006.9
20260507044844 59 309 2.6 5.2 0.00 0.08 0.00 92 1007.0
20260507044344 59 275 2.6 8.7 0.00 0.08 0.00 93 1006.9
20260507043843 59 274 3.5 7.0 0.00 0.08 0.00 93 1006.7
20260507043403 59 271 3.5 8.7 0.00 0.08 0.00 95 1006.7
20260507042743 59 292 4.3 7.0 0.00 0.08 0.00 96 1006.5
20260507042343 59 277 3.5 3.5 0.00 0.08 0.00 96 1006.4
20260507041843 59 267 1.7 5.2 0.00 0.08 0.00 97 1006.5
20260507041343 59 263 2.6 5.2 0.00 0.08 0.00 97 1006.7
20260507040842 59 256 1.7 4.3 0.00 0.08 0.00 97 1006.7
20260507040342 59 255 3.5 3.5 0.00 0.08 0.00 98 1006.8
20260507035841 59 268 3.5 5.2 0.00 0.08 0.08 98 1006.8
20260507035402 59 262 6.1 11.3 0.00 0.08 0.08 98 1007.0
20260507034901 59 273 3.5 5.2 0.00 0.08 0.08 98 1006.9
20260507034421 59 183 1.7 5.2 0.00 0.08 0.08 98 1007.0
20260507033841 59 192 2.6 7.8 0.00 0.08 0.08 98 1006.8
20260507033341 59 186 1.7 7.0 0.00 0.08 0.08 98 1006.6
20260507032900 59 256 3.5 7.8 0.00 0.08 0.08 98 1006.8
20260507032300 59 262 1.7 10.4 0.00 0.08 0.08 98 1006.6
20260507031740 59 200 0.9 9.6 0.00 0.08 0.08 97 1006.6
20260507031240 59 188 2.6 8.7 0.00 0.08 0.08 97 1006.6
20260507030740 59 235 3.5 9.6 0.00 0.08 0.08 97 1006.6
20260507030239 59 245 5.2 9.6 0.00 0.08 0.08 97 1006.4
20260507025819 59 293 4.3 10.4 0.00 0.08 0.08 97 1006.4
20260507025239 59 253 6.1 8.7 0.00 0.08 0.08 97 1006.3
20260507024739 59 237 2.6 7.0 0.00 0.08 0.08 97 1006.2
20260507024259 59 274 9.6 9.6 0.00 0.08 0.08 97 1006.5
20260507023738 59 216 6.1 7.0 0.00 0.08 0.08 97 1006.2
20260507023238 59 195 2.6 10.4 0.00 0.08 0.08 97 1006.5
20260507022818 59 233 4.3 13.9 0.00 0.08 0.08 98 1006.5
20260507022138 59 217 7.8 11.3 0.00 0.08 0.08 98 1006.2
20260507021718 58 254 1.7 11.3 0.00 0.08 0.08 98 1006.2
20260507021138 58 203 3.5 8.7 0.00 0.08 0.08 98 1006.0
20260507020657 58 0.0 7.8 0.00 0.08 0.08 98 1006.0
20260507020137 58 228 4.3 7.8 0.00 0.08 0.08 98 1006.4
20260507015636 58 274 4.3 9.6 0.00 0.08 0.08 98 1006.5
20260507015136 58 218 9.6 12.2 0.00 0.08 0.08 98 1006.4
20260507014657 58 200 2.6 7.0 0.00 0.08 0.08 98 1006.2
20260507014136 58 240 4.3 5.2 0.00 0.08 0.08 98 1006.5
20260507013636 58 183 2.6 9.6 0.00 0.08 0.08 98 1006.5
20260507013135 58 217 0.9 6.1 0.00 0.08 0.08 98 1006.6
20260507012635 58 188 1.7 7.8 0.00 0.08 0.08 98 1006.7
20260507012035 58 185 3.5 7.8 0.00 0.08 0.08 98 1006.6
20260507011536 58 191 7.0 9.6 0.00 0.08 0.08 98 1006.9
20260507011034 58 216 3.5 5.2 0.00 0.08 0.08 98 1006.9
20260507010534 58 214 3.5 6.1 0.00 0.08 0.08 98 1006.7
20260507010034 58 208 3.5 9.6 0.00 0.08 0.08 98 1006.8
20260507005555 58 184 5.2 13.0 0.00 0.08 0.08 98 1006.9
20260507005054 58 237 5.2 5.2 0.00 0.08 0.08 98 1006.9
20260507004534 58 194 5.2 11.3 0.00 0.08 0.08 98 1007.0
20260507004033 58 239 7.0 9.6 0.00 0.08 0.08 98 1006.9
20260507003534 58 150 2.6 5.2 0.01 0.08 0.08 98 1006.8
20260507003033 58 157 1.7 6.1 0.01 0.08 0.08 98 1006.7
20260507002432 58 217 7.0 11.3 0.01 0.08 0.08 98 1006.6
20260507001932 58 159 4.3 7.8 0.02 0.08 0.08 98 1006.7
20260507001432 57 142 4.3 7.8 0.02 0.08 0.08 98 1006.6
20260507000932 58 166 3.5 11.3 0.02 0.08 0.08 98 1006.6
20260507000432 58 208 3.5 9.6 0.02 0.08 0.08 98 1006.5
20260507000011 58 228 5.2 6.1 0.02 0.08 0.08 98 1006.5
20260506235431 58 233 7.0 14.8 0.02 0.08 0.08 98 1006.3
20260506234932 58 216 7.0 14.8 0.02 0.08 0.08 98 1006.5
20260506234431 58 200 1.7 5.2 0.02 0.08 0.08 98 1006.5
20260506233931 58 195 6.1 10.4 0.02 0.07 0.07 98 1006.4
20260506233430 58 0.0 7.0 0.01 0.07 0.07 98 1006.2
20260506232930 58 210 1.7 7.8 0.01 0.07 0.07 98 1006.3
20260506232330 58 216 2.6 8.7 0.01 0.07 0.07 98 1006.4
20260506231830 58 189 5.2 7.8 0.01 0.06 0.06 97 1006.1
20260506231350 59 193 3.5 8.7 0.01 0.06 0.06 97 1006.5
20260506230829 59 247 2.6 7.0 0.00 0.06 0.06 97 1006.5
20260506230329 59 228 2.6 6.1 0.00 0.06 0.06 97 1006.4
20260506225829 59 181 1.7 7.8 0.00 0.06 0.06 97 1006.2
20260506225329 59 150 6.1 7.0 0.00 0.06 0.06 96 1006.5
20260506224848 59 251 3.5 5.2 0.00 0.06 0.06 97 1006.4
20260506224328 59 236 3.5 5.2 0.00 0.06 0.06 97 1006.4
20260506223829 59 278 3.5 5.2 0.01 0.06 0.06 97 1006.4
20260506223327 59 161 2.6 6.1 0.01 0.06 0.06 97 1006.5
20260506222828 59 163 1.7 10.4 0.02 0.06 0.06 97 1006.6
20260506222227 59 221 8.7 13.0 0.02 0.06 0.06 97 1006.6
20260506221727 59 192 1.7 13.0 0.02 0.06 0.06 97 1006.6
20260506221227 59 225 6.1 7.8 0.02 0.06 0.06 97 1006.8
20260506220727 59 207 4.3 6.1 0.02 0.06 0.06 97 1006.8
20260506220227 59 183 2.6 9.6 0.02 0.06 0.06 97 1006.8
20260506215727 59 194 7.0 8.7 0.02 0.06 0.06 97 1006.7
20260506215226 59 145 7.8 11.3 0.02 0.06 0.06 97 1006.9
20260506214726 59 228 7.8 9.6 0.02 0.05 0.05 97 1006.8
20260506214226 59 187 5.2 7.8 0.02 0.05 0.05 96 1007.0
20260506213725 60 198 3.5 18.2 0.02 0.05 0.05 96 1007.1
20260506213225 60 183 2.6 5.2 0.01 0.04 0.04 95 1007.1
20260506212725 60 0.0 12.2 0.01 0.04 0.04 94 1007.2
20260506212125 60 192 7.8 13.9 0.00 0.04 0.04 93 1007.2
20260506211725 60 194 7.8 10.4 0.00 0.03 0.03 93 1007.1
20260506211225 61 166 5.2 13.0 0.00 0.03 0.03 92 1007.3
20260506210724 61 205 3.5 9.6 0.00 0.03 0.03 92 1007.1
20260506210224 60 205 7.0 11.3 0.00 0.03 0.03 92 1007.1
20260506205724 61 141 5.2 15.6 0.00 0.03 0.03 91 1007.3
20260506205224 60 153 8.7 11.3 0.01 0.03 0.03 91 1007.2
20260506204743 60 185 6.1 7.8 0.01 0.03 0.03 92 1007.3
20260506204223 60 207 3.5 9.6 0.01 0.03 0.03 92 1007.4
20260506203723 60 225 6.1 9.6 0.02 0.03 0.03 91 1007.4
20260506203303 61 157 3.5 8.7 0.02 0.03 0.03 91 1007.7
20260506202723 61 256 3.5 17.4 0.02 0.03 0.03 90 1007.6
20260506202243 61 205 0.9 6.1 0.02 0.03 0.03 91 1007.7
20260506201722 61 155 3.5 5.2 0.02 0.03 0.03 91 1007.5
20260506201223 61 222 4.3 6.1 0.03 0.03 0.03 91 1007.3
20260506200722 61 182 4.3 12.2 0.03 0.03 0.03 91 1007.5
20260506200222 61 212 1.7 9.6 0.03 0.03 0.03 90 1007.4
20260506195722 62 227 4.3 7.0 0.03 0.03 0.03 90 1007.3
20260506195242 62 223 2.6 6.1 0.02 0.02 0.02 90 1007.3
20260506194722 62 156 3.5 5.2 0.02 0.02 0.02 88 1007.3
20260506194221 63 195 3.5 9.6 0.02 0.02 0.02 86 1007.3
20260506193801 63 175 1.7 5.2 0.02 0.02 0.02 85 1007.7
20260506193221 64 193 0.9 7.8 0.02 0.02 0.02 84 1007.8
20260506192721 64 0.0 7.0 0.01 0.01 0.01 83 1007.6
20260506192221 64 212 5.2 7.0 0.01 0.01 0.01 81 1007.7
20260506191721 65 163 4.3 11.3 0.01 0.01 0.01 80 1007.6
20260506191301 65 194 4.3 9.6 0.00 0.00 0.00 79 1007.4
20260506190720 66 176 5.2 7.8 0.00 0.00 0.00 75 1007.5
20260506190240 66 264 5.2 8.7 0.00 0.00 0.00 74 1007.3
20260506185720 67 187 7.0 13.0 0.00 0.00 0.00 71 1007.4
20260506185220 68 206 6.1 17.4 0.00 0.00 0.00 68 1007.6
20260506184720 68 169 10.4 13.9 0.00 0.00 0.00 67 1007.5
20260506184220 68 238 3.5 12.2 0.00 0.00 0.00 68 1007.6
20260506183719 69 241 5.2 6.1 0.00 0.00 0.00 68 1007.7
20260506183220 69 220 4.3 7.8 0.00 0.00 0.00 67 1007.5
20260506182719 69 191 3.5 11.3 0.00 0.00 0.00 65 1007.6
20260506182219 69 198 5.2 12.2 0.00 0.00 0.00 64 1007.8
20260506181738 70 166 7.8 13.0 0.00 0.00 0.00 63 1007.7
20260506181218 70 240 5.2 9.6 0.00 0.00 0.00 62 1007.7
20260506180717 70 201 3.5 10.4 0.00 0.00 0.00 61 1007.9
20260506180218 71 186 4.3 19.1 0.00 0.00 0.00 61 1007.7
20260506175717 71 140 11.3 18.2 0.00 0.00 0.00 60 1007.7
20260506175237 72 172 11.3 17.4 0.00 0.00 0.00 59 1008.2
20260506174717 72 132 5.2 10.4 0.00 0.00 0.00 58 1008.1
20260506174217 72 179 1.7 18.2 0.00 0.00 0.00 58 1008.0
20260506173716 73 167 10.4 13.0 0.00 0.00 0.00 58 1008.3
20260506173236 73 203 4.3 14.8 0.00 0.00 0.00 58 1008.0
20260506172716 73 217 3.5 11.3 0.00 0.00 0.00 57 1008.1
20260506172216 72 202 3.5 15.6 0.00 0.00 0.00 57 1008.2
20260506171716 72 250 6.1 9.6 0.00 0.00 0.00 60 1008.3
20260506171216 72 148 7.8 16.5 0.00 0.00 0.00 59 1008.3
20260506170715 73 187 4.3 13.9 0.00 0.00 0.00 59 1007.9
20260506170215 73 220 4.3 10.4 0.00 0.00 0.00 59 1007.8
20260506165715 72 142 7.0 16.5 0.00 0.00 0.00 61 1008.3
20260506165215 72 203 6.1 13.0 0.00 0.00 0.00 61 1008.3
20260506164755 72 242 9.6 13.0 0.00 0.00 0.00 61 1008.2
20260506164215 71 209 7.8 14.8 0.00 0.00 0.00 62 1008.5
20260506163714 71 167 3.5 15.6 0.00 0.00 0.00 62 1008.4
20260506163214 72 129 5.2 11.3 0.00 0.00 0.00 63 1008.4
20260506162714 71 148 8.7 13.9 0.00 0.00 0.00 63 1008.4
20260506162214 71 182 2.6 17.4 0.00 0.00 0.00 63 1008.5
20260506161713 71 144 7.8 9.6 0.00 0.00 0.00 63 1008.9